User: anonymous   Login
Location: Krishnamma Banjar
(17.2175°N, 80.5166°E)
Time: 06:35:36
(UTC+00:00)
Language:

H-2A R/B - Orbit

View from above orbital plane
View from above orbital plane
View from above satellite
View from above satellite

Ground track
Ground track

The orbit data is extracted from the following two-line orbital elements,

1 27601U 02056E   24281.44821462  .00001904  00000-0  69077-3 0  9993
2 27601  98.2447 253.0365 0069589 266.7549 204.5450 14.33076888139867
Epoch (UTC): 07 October 2024 10:45:25
Eccentricity: 0.0069589
inclination: 98.2447°
perigee height: 731 km
apogee height: 831 km
right ascension of ascending node: 253.0365°
argument of perigee: 266.7549°
revolutions per day: 14.33076888
mean anomaly at epoch: 204.5450°
orbit number at epoch: 13986

The dashed part of the orbit path shows where the satellite is in the earth's shadow,  

DLR